Wakefield, VA

10:49 AM EST on December 14, 2019 (GMT -0500)
Wakefield Municipal

Weather History for KAKQ - October, 2019

Change the Weather History Date:

Monday, October 7, 2019

  Actual Average (KJGG) Record (KJGG)
Temperature  
Mean Temperature 70 °F -  
Max Temperature 84 °F 73 °F 91 °F (2007)
Min Temperature 55 °F 49 °F 35 °F (1966)
Cooling Degree Days 4    
Growing Degree Days 20 (Base 50)    
Moisture  
Dew Point 60 °F    
Average Humidity 76    
Maximum Humidity 93    
Minimum Humidity 44    
Precipitation  
Precipitation 0.00 in - - ()
Sea Level Pressure  
Sea Level Pressure 30.14 in    
Wind  
Wind Speed 1 mph (South)    
Max Wind Speed 8 mph    
Max Gust Speed -    
Visibility 9 miles    
Events Rain    
Averages and records for this station are not official NWS values.
T = Trace of Precipitation, MM = Missing Value Source: NWS Daily Summary

Daily Weather History Graph

Daily Weather History Graph

Search for Another Location

Airport or City:

Astronomy

Oct. 07, 2019 Rise Set
Actual Time 7:08 AM EDT 6:42 PM EDT
Civil Twilight 6:42 AM EDT 7:08 PM EDT
Nautical Twilight 6:12 AM EDT 7:38 PM EDT
Astronomical Twilight 5:42 AM EDT 8:08 PM EDT
Moon 3:53 PM EDT (10/7) 1:09 AM EDT (10/7)
Length of Visible Light 12h 26m
Length of Day
11h 34m
Waxing Gibbous, 69% of the Moon is Illuminated
Oct 7
Waxing Gibbous
Oct 13
Full
Oct 21
Last Quarter
Oct 27
New
Nov 4
First Quarter

Hourly Weather History & Observations

Time (EDT) Temp. Heat Index Dew Point Humidity Pressure Visibility Wind Dir Wind Speed Gust Speed Precip Events Conditions
12:54 AM 63.0 °F - 59.0 °F 87% 30.24 in 10.0 mi Calm Calm - N/A   Clear
1:54 AM 62.1 °F - 59.0 °F 90% 30.23 in 10.0 mi Calm Calm - N/A   Clear
2:54 AM 60.1 °F - 57.9 °F 93% 30.21 in 10.0 mi Calm Calm - N/A   Clear
3:54 AM 59.0 °F - 57.0 °F 93% 30.19 in 8.0 mi Calm Calm - N/A   Clear
4:04 AM 59.0 °F - 57.0 °F 93% 30.19 in 2.0 mi Calm Calm - N/A   Clear
4:12 AM 59.0 °F - 57.0 °F 93% 30.19 in 7.0 mi Calm Calm - N/A   Clear
4:24 AM 57.9 °F - 55.9 °F 93% 30.19 in 1.5 mi Calm Calm - N/A   Clear
4:35 AM 57.9 °F - 55.9 °F 93% 30.18 in 4.0 mi Calm Calm - N/A   Clear
4:54 AM 57.9 °F - 55.9 °F 93% 30.18 in 10.0 mi Calm Calm - N/A   Clear
5:54 AM 57.0 °F - 55.0 °F 93% 30.19 in 10.0 mi Calm Calm - N/A   Clear
6:54 AM 55.9 °F - 54.0 °F 93% 30.19 in 10.0 mi Calm Calm - N/A   Clear
7:54 AM 57.0 °F - 55.0 °F 93% 30.19 in 10.0 mi Calm Calm - N/A   Clear
8:54 AM 66.0 °F - 62.1 °F 87% 30.19 in 10.0 mi Calm Calm - N/A   Overcast
9:54 AM 73.0 °F - 64.0 °F 73% 30.18 in 10.0 mi Variable 3.5 mph - N/A   Mostly Cloudy
10:54 AM 78.1 °F - 64.0 °F 62% 30.17 in 10.0 mi Variable 5.8 mph - N/A   Clear
11:54 AM 80.1 °F 81.2 °F 62.1 °F 54% 30.14 in 10.0 mi South 5.8 mph - N/A   Partly Cloudy
12:54 PM 82.9 °F 83.7 °F 62.1 °F 49% 30.12 in 10.0 mi South 8.1 mph - N/A   Mostly Cloudy
1:54 PM 84.0 °F 84.0 °F 60.1 °F 44% 30.09 in 10.0 mi North - - N/A   Scattered Clouds
2:54 PM 84.0 °F 84.0 °F 60.1 °F 44% 30.07 in 10.0 mi Variable 6.9 mph - N/A   Scattered Clouds
3:54 PM 82.0 °F 82.4 °F 60.1 °F 47% 30.06 in 10.0 mi SSE 4.6 mph - N/A   Mostly Cloudy
4:54 PM 82.9 °F 83.3 °F 61.0 °F 47% 30.04 in 10.0 mi Calm Calm - N/A   Scattered Clouds
5:54 PM 80.1 °F 81.2 °F 62.1 °F 54% 30.04 in 10.0 mi South 3.5 mph - 0.00 in Rain Light Rain
6:54 PM 75.9 °F - 64.0 °F 67% 30.04 in 10.0 mi Calm Calm - 0.00 in   Scattered Clouds
7:54 PM 73.9 °F - 64.9 °F 73% 30.04 in 10.0 mi Calm Calm - N/A   Overcast
8:54 PM 72.0 °F - 64.0 °F 76% 30.07 in 10.0 mi Calm Calm - N/A   Partly Cloudy
9:54 PM 72.0 °F - 64.0 °F 76% 30.08 in 10.0 mi Calm Calm - N/A   Mostly Cloudy
10:54 PM 70.0 °F - 64.0 °F 81% 30.07 in 10.0 mi Calm Calm - N/A   Overcast
11:54 PM 68.0 °F - 64.0 °F 87% 30.07 in 10.0 mi Calm Calm - N/A   Mostly Cloudy